Location: Newark
(45.0500°N, 41.9667°E)
Time: 00:32:26
(UTC+00:00)

Starlink (trailer) - Pass Details

Date: 24 July 2019
Orbit: 549 x 551 km, 53.0° (Epoch: 23 August)

Event Time Altitude Azimuth Distance (km) Brightness Sun altitude
Rises 00:27:09 0° 291° (WNW) 2,721 6.9 -12.1°
Reaches altitude 10° 00:29:39 10° 304° (NW) 1,828 6.2 -11.8°
Maximum altitude 00:33:13 27° 3° (N) 1,086 5.7 -11.4°
Drops below altitude 10° 00:36:46 10° 62° (ENE) 1,828 7.7 -10.9°
Sets 00:39:17 0° 75° (ENE) 2,722 8.4 -10.6°
